Friday Harbor, WA

11:59 AM PST on November 19, 2017 (GMT -0800)
Friday Harbor

Weather History for KFHR - October, 2013

Change the Weather History Date:

Thursday, October 10, 2013

  Actual Average Record
Temperature  
Mean Temperature 48 °F -  
Max Temperature 55 °F 57 °F 64 °F (2006)
Min Temperature 39 °F 42 °F 35 °F (1999)
Degree Days  
Heating Degree Days 17    
Moisture  
Dew Point 46 °F    
Average Humidity 86    
Maximum Humidity 97    
Minimum Humidity 72    
Precipitation  
Precipitation 0.00 in - - ()
Sea Level Pressure  
Sea Level Pressure 30.00 in    
Wind  
Wind Speed 1 mph (NNW)    
Max Wind Speed 8 mph    
Max Gust Speed -    
Visibility 8 miles    
Events Rain    
Averages and records for this station are not official NWS values.
T = Trace of Precipitation, MM = Missing Value Source: NWS Daily Summary

Daily Weather History Graph

Daily Weather History Graph

Search for Another Location

Airport or City:

Trip Planner

Search our weather history database for the weather conditions in past years. The results will help you decide how hot, cold, wet, or windy it might be!

Date:

Astronomy

Oct. 10, 2013 Rise Set
Actual Time 7:25 AM PDT 6:31 PM PDT
Civil Twilight 6:53 AM PDT 7:03 PM PDT
Nautical Twilight 6:17 AM PDT 7:39 PM PDT
Astronomical Twilight 5:40 AM PDT 8:15 PM PDT
Moon 1:39 PM PDT (10/10) 10:58 PM PDT (10/10)
Length of Visible Light 12h 09m
Length of Day
11h 06m
Waxing Crescent, 37% of the Moon is Illuminated
Oct 10
Waxing Crescent
Oct 11
First Quarter
Oct 18
Full
Oct 26
Last Quarter
Nov 3
New

Hourly Weather History & Observations

Time (PDT) Temp. Dew Point Humidity Pressure Visibility Wind Dir Wind Speed Gust Speed Precip Events Conditions
12:53 AM 50.0 °F 46.0 °F 86% 29.97 in 10.0 mi Calm Calm - N/A   Overcast
1:53 AM 48.0 °F 46.0 °F 93% 29.95 in 9.0 mi Calm Calm - N/A   Overcast
2:53 AM 48.9 °F 46.0 °F 90% 29.95 in 10.0 mi Calm Calm - N/A   Overcast
3:53 AM 50.0 °F 48.0 °F 93% 29.95 in 9.0 mi SW 3.5 mph - N/A   Overcast
4:53 AM 50.0 °F 48.0 °F 93% 29.94 in 7.0 mi WSW 3.5 mph - N/A   Overcast
5:53 AM 50.0 °F 46.9 °F 89% 29.95 in 7.0 mi West 3.5 mph - N/A   Overcast
6:53 AM 48.9 °F 46.9 °F 93% 29.95 in 7.0 mi Calm Calm - 0.00 in Rain Light Rain
7:53 AM 48.0 °F 46.9 °F 96% 29.96 in 5.0 mi Calm Calm - 0.00 in   Overcast
8:53 AM 50.0 °F 48.9 °F 96% 29.98 in 4.0 mi Calm Calm - 0.00 in   Overcast
9:38 AM 51.8 °F 48.2 °F 88% 29.99 in 4.0 mi Calm Calm - 0.00 in Rain Light Rain
9:53 AM 51.1 °F 48.9 °F 92% 30.00 in 4.0 mi Calm Calm - 0.00 in Rain Light Rain
10:00 AM 51.8 °F 48.2 °F 88% 29.99 in 5.0 mi Calm Calm - 0.00 in Rain Light Rain
10:23 AM 51.8 °F 48.2 °F 88% 30.00 in 5.0 mi Calm Calm - 0.00 in Rain Light Rain
10:53 AM 53.1 °F 48.0 °F 83% 30.00 in 8.0 mi NNE 3.5 mph - 0.00 in   Overcast
11:26 AM 55.4 °F 48.2 °F 77% 30.00 in 9.0 mi NNE 4.6 mph - N/A   Overcast
11:53 AM 53.1 °F 46.9 °F 80% 30.01 in 9.0 mi North 5.8 mph - N/A   Overcast
12:31 PM 55.4 °F 46.4 °F 72% 30.01 in 10.0 mi North 4.6 mph - N/A   Overcast
12:53 PM 54.0 °F 46.9 °F 77% 30.02 in 8.0 mi North 8.1 mph - N/A   Overcast
1:53 PM 54.0 °F 46.9 °F 77% 30.02 in 10.0 mi NNE 3.5 mph - N/A   Overcast
2:53 PM 55.0 °F 46.0 °F 72% 30.02 in 10.0 mi North 8.1 mph - N/A   Overcast
3:53 PM 54.0 °F 46.0 °F 75% 30.03 in 9.0 mi North 5.8 mph - N/A   Overcast
4:53 PM 53.1 °F 46.0 °F 77% 30.04 in 8.0 mi Calm Calm - N/A   Overcast
5:53 PM 53.1 °F 45.0 °F 74% 30.03 in 9.0 mi Calm Calm - N/A   Overcast
6:53 PM 51.1 °F 44.1 °F 77% 30.04 in 10.0 mi Calm Calm - N/A   Overcast
7:53 PM 46.9 °F 44.1 °F 90% 30.04 in 10.0 mi Calm Calm - N/A   Overcast
8:53 PM 44.1 °F 43.0 °F 96% 30.05 in 9.0 mi Calm Calm - N/A   Mostly Cloudy
9:53 PM 43.0 °F 41.0 °F 93% 30.07 in 10.0 mi Calm Calm - N/A   Scattered Clouds
10:53 PM 41.0 °F 39.9 °F 96% 30.09 in 7.0 mi Calm Calm - N/A   Clear
11:53 PM 39.9 °F 39.0 °F 97% 30.09 in 7.0 mi Calm Calm - N/A   Clear